| time (UTC) | temp C | wind direction | speed KPH | gust KPH | rain 1hr cm | rain 24hr cm | rain mn cm | humidity % | barometer mb |
| 20260506070531 | 13 | 246 | 0.0 | 0.0 | 0.00 | 0.00 | 0.00 | 58 | 1007.9 |
| 20260506060529 | 14 | 174 | 0.0 | 3.2 | 0.00 | 0.05 | 0.05 | 58 | 1007.8 |
| 20260506050527 | 16 | 284 | 0.0 | 0.0 | 0.00 | 0.18 | 0.18 | 50 | 1007.3 |
| 20260506043526 | 16 | 124 | 0.0 | 4.8 | 0.00 | 0.20 | 0.18 | 48 | 1007.0 |
| 20260506040525 | 17 | 208 | 0.0 | 6.4 | 0.00 | 0.20 | 0.18 | 43 | 1006.6 |
| 20260506033524 | 17 | 269 | 0.0 | 0.0 | 0.00 | 0.20 | 0.18 | 42 | 1006.2 |
| 20260506030523 | 17 | 276 | 9.7 | 11.3 | 0.00 | 0.20 | 0.18 | 39 | 1005.7 |
| 20260506023522 | 18 | 295 | 8.0 | 16.1 | 0.00 | 0.20 | 0.18 | 37 | 1005.2 |
| 20260506020521 | 19 | 243 | 6.4 | 20.9 | 0.00 | 0.20 | 0.18 | 31 | 1004.6 |
| 20260506013520 | 20 | 269 | 14.5 | 20.9 | 0.00 | 0.20 | 0.18 | 29 | 1004.2 |
| 20260506010519 | 21 | 266 | 17.7 | 30.6 | 0.00 | 0.20 | 0.18 | 28 | 1003.9 |
| 20260506003518 | 22 | 186 | 12.9 | 20.9 | 0.00 | 0.20 | 0.18 | 26 | 1003.8 |
| 20260506000517 | 22 | 235 | 9.7 | 35.4 | 0.00 | 0.20 | 0.18 | 24 | 1003.6 |
| 20260505233516 | 22 | 226 | 9.7 | 27.4 | 0.00 | 0.20 | 0.18 | 20 | 1003.3 |
| 20260505230515 | 23 | 255 | 6.4 | 25.7 | 0.00 | 0.20 | 0.18 | 27 | 1003.2 |
| 20260505223514 | 23 | 277 | 12.9 | 27.4 | 0.00 | 0.20 | 0.18 | 28 | 1003.5 |
| 20260505220513 | 23 | 259 | 17.7 | 29.0 | 0.00 | 0.20 | 0.18 | 30 | 1003.8 |
| 20260505213512 | 23 | 165 | 12.9 | 29.0 | 0.00 | 0.20 | 0.18 | 30 | 1004.1 |
| 20260505210511 | 23 | 174 | 1.6 | 30.6 | 0.00 | 0.20 | 0.18 | 32 | 1004.2 |
| 20260505203510 | 23 | 239 | 12.9 | 30.6 | 0.00 | 0.20 | 0.18 | 31 | 1004.7 |
| 20260505200509 | 23 | 259 | 11.3 | 27.4 | 0.00 | 0.20 | 0.18 | 32 | 1004.8 |
| 20260505193508 | 22 | 156 | 4.8 | 27.4 | 0.00 | 0.20 | 0.18 | 36 | 1004.9 |
| 20260505190507 | 21 | 297 | 4.8 | 9.7 | 0.00 | 0.20 | 0.18 | 50 | 1005.2 |
| 20260505183506 | 20 | 212 | 4.8 | 9.7 | 0.00 | 0.20 | 0.18 | 53 | 1005.7 |
| 20260505180505 | 20 | 295 | 4.8 | 6.4 | 0.00 | 0.20 | 0.18 | 54 | 1005.9 |
| 20260505173504 | 18 | 318 | 8.0 | 9.7 | 0.00 | 0.20 | 0.18 | 58 | 1006.1 |
| 20260505170503 | 18 | 335 | 1.6 | 12.9 | 0.00 | 0.20 | 0.18 | 59 | 1006.2 |
| 20260505163502 | 17 | 322 | 4.8 | 11.3 | 0.00 | 0.20 | 0.18 | 64 | 1006.4 |
| 20260505160501 | 17 | 262 | 8.0 | 11.3 | 0.00 | 0.20 | 0.18 | 64 | 1006.2 |
| 20260505150459 | 15 | 86 | 0.0 | 0.0 | 0.00 | 0.20 | 0.18 | 79 | 1006.0 |
| 20260505140457 | 13 | 96 | 0.0 | 3.2 | 0.00 | 0.20 | 0.18 | 86 | 1005.7 |
| 20260505123454 | 13 | 37 | 0.0 | 0.0 | 0.00 | 0.20 | 0.18 | 90 | 1004.9 |
| 20260505120453 | 13 | 90 | 0.0 | 8.0 | 0.00 | 0.20 | 0.18 | 88 | 1004.7 |
| 20260505113452 | 13 | 83 | 3.2 | 11.3 | 0.00 | 0.20 | 0.18 | 89 | 1004.3 |
| 20260505110451 | 13 | 112 | 4.8 | 8.0 | 0.00 | 0.20 | 0.18 | 89 | 1005.1 |
| 20260505100449 | 13 | 84 | 3.2 | 4.8 | 0.00 | 0.20 | 0.18 | 90 | 1005.9 |
| 20260505093448 | 13 | 98 | 6.4 | 9.7 | 0.00 | 0.20 | 0.18 | 90 | 1006.6 |
| 20260505090447 | 13 | 96 | 3.2 | 9.7 | 0.05 | 0.20 | 0.18 | 89 | 1007.6 |
| 20260505083446 | 13 | 110 | 0.0 | 1.6 | 0.10 | 0.20 | 0.18 | 87 | 1008.3 |
| 20260505080445 | 14 | 273 | 0.0 | 4.8 | 0.10 | 0.15 | 0.13 | 84 | 1008.8 |
| 20260505073444 | 14 | 273 | 0.0 | 1.6 | 0.05 | 0.08 | 0.05 | 84 | 1008.9 |